Date String (YYYY-MM-DD hh:mm:ss) UTC,Instrument flags,absolute air pressure of the measurement (hPa),sample flow rate (lpm),inlet stack bypass flow (lpm),air temperature of the measurement (°C),ambient temperature measured by the external sensor (°C),aerosol sample conditioner tube jacket temperature (°C),OPC LED temperature (°C),internal box temperature (°C),relative humidity of the measurement (%),span deviation,mass concentration of particles derived from Lorenz-Mie calculation of OPC scattering (μg/m³),mass concentration of particles derived from Lorenz-Mie calculation of OPC scattering (μg/m³),mass concentration of particles derived from Lorenz-Mie calculation of OPC scattering (μg/m³)
DateTimeUTC,F1_M11,P_M11,Q1_M11,Q2_M11,T1_M11,T2_M11,T3_M11,T4_M11,T5_M11,U1_M11,ZSPAN_M11,X0_M11,X2_M11,X1_M11
2024-02-06 16:00:00,SystemResetWarning,0825.2,5.01,000.00,018.4,017.8,000.0,026.8,020.0,16.0,0000.0,0002.13,0000.80,0000.70
2024-02-06 16:01:00,SystemResetWarning,0825.2,5.01,000.00,018.4,017.8,000.0,026.8,020.0,15.8,0000.0,0002.14,0000.81,0000.70
2024-02-06 16:02:00,SystemResetWarning,0825.1,4.99,000.00,018.4,017.8,000.0,026.8,020.0,15.9,0000.0,0002.13,0000.80,0000.69
2024-02-06 16:03:00,SystemResetWarning,0825.1,5.00,000.00,018.4,017.9,000.0,026.8,020.0,15.8,0000.0,0001.89,0000.80,0000.68
2024-02-06 16:04:00,SystemResetWarning,0825.1,5.00,000.00,018.4,017.9,000.0,026.8,020.0,15.7,0000.0,0001.15,0000.82,0000.69
2024-02-06 16:05:00,SystemResetWarning,0825.0,5.00,000.00,018.4,017.9,000.0,026.8,020.0,15.3,0000.0,0001.15,0000.82,0000.69
2024-02-06 16:06:00,SystemResetWarning,0825.1,5.01,000.00,018.4,017.9,000.0,026.8,020.0,15.3,0000.0,0001.16,0000.82,0000.70
2024-02-06 16:07:00,SystemResetWarning,0825.1,5.01,000.00,018.4,017.9,000.0,026.8,020.0,15.3,0000.0,0001.13,0000.82,0000.70
2024-02-06 16:08:00,SystemResetWarning,0825.1,5.00,000.00,018.4,017.9,000.0,026.8,020.0,15.2,0000.0,0001.12,0000.83,0000.71
2024-02-06 16:09:00,SystemResetWarning,0825.1,5.00,000.00,018.4,017.9,000.0,026.8,020.0,15.0,0000.0,0001.10,0000.84,0000.73
2024-02-06 16:10:00,SystemResetWarning,0825.2,5.00,000.00,018.4,017.9,000.0,026.7,020.0,14.8,0000.0,0001.15,0000.86,0000.74
2024-02-06 16:11:00,SystemResetWarning,0825.2,5.00,000.00,018.4,017.9,000.0,026.7,020.0,15.8,0000.0,0001.11,0000.84,0000.74
2024-02-06 16:12:00,SystemResetWarning,0825.2,4.99,000.00,018.4,018.0,000.0,026.7,020.1,17.5,0000.0,0001.14,0000.84,0000.74
2024-02-06 16:13:00,SystemResetWarning,0825.2,4.99,000.00,018.4,018.0,000.0,026.7,020.1,16.8,0000.0,0001.18,0000.86,0000.75
2024-02-06 16:14:00,SystemResetWarning,0825.2,4.99,000.00,018.4,018.0,000.0,026.7,020.0,16.1,0000.0,0001.14,0000.84,0000.75
2024-02-06 16:15:00,SystemResetWarning,0825.2,5.02,000.00,018.5,018.0,000.0,026.7,020.0,15.8,0000.0,0001.10,0000.83,0000.75
2024-02-06 16:16:00,SystemResetWarning,0825.2,4.98,000.00,018.5,018.0,000.0,026.8,020.1,15.6,0000.0,0002.25,0000.86,0000.77
2024-02-06 16:17:00,SystemResetWarning,0825.2,5.00,000.00,018.5,018.0,000.0,026.8,020.1,15.6,0000.0,0002.40,0000.89,0000.79
2024-02-06 16:18:00,SystemResetWarning,0825.2,5.01,000.00,018.5,018.0,000.0,026.8,020.1,15.2,0000.0,0002.52,0000.94,0000.80
2024-02-06 16:19:00,SystemResetWarning,0825.3,5.01,000.00,018.5,018.0,000.0,026.7,020.1,14.9,0000.0,0002.54,0000.95,0000.81
2024-02-06 16:20:00,SystemResetWarning,0825.2,5.00,000.00,018.5,018.0,000.0,026.7,020.1,14.5,0000.0,0002.54,0000.94,0000.80
2024-02-06 16:21:00,SystemResetWarning,0825.2,5.00,000.00,018.5,018.1,000.0,026.7,020.1,14.4,0000.0,0002.50,0000.93,0000.80
2024-02-06 16:22:00,SystemResetWarning,0825.2,5.00,000.00,018.5,018.1,000.0,026.8,020.1,14.3,0000.0,0002.45,0000.92,0000.80
2024-02-06 16:23:00,SystemResetWarning,0825.2,5.00,000.00,018.5,018.1,000.0,026.8,020.1,14.2,0000.0,0002.45,0000.92,0000.79
2024-02-06 16:24:00,SystemResetWarning,0825.2,4.99,000.00,018.5,018.1,000.0,026.8,020.1,14.2,0000.0,0002.42,0000.92,0000.79
2024-02-06 16:25:00,SystemResetWarning,0825.2,5.00,000.00,018.5,018.1,000.0,026.8,020.1,14.5,0000.0,0002.44,0000.94,0000.80
2024-02-06 16:26:00,SystemResetWarning,0825.2,5.00,000.00,018.5,018.1,000.0,026.8,020.2,14.2,0000.0,0002.44,0000.94,0000.80
2024-02-06 16:27:00,SystemResetWarning,0825.2,5.01,000.00,018.6,018.1,000.0,026.8,020.2,14.2,0000.0,0001.61,0000.93,0000.79
2024-02-06 16:28:00,SystemResetWarning,0825.2,5.00,000.00,018.6,018.2,000.0,026.8,020.2,14.1,0000.0,0001.25,0000.90,0000.77
2024-02-06 16:29:00,SystemResetWarning,0825.1,5.01,000.00,018.6,018.2,000.0,026.8,020.2,14.2,0000.0,0001.13,0000.85,0000.76
2024-02-06 16:30:00,SystemResetWarning,0825.1,5.00,000.00,018.6,018.2,000.0,026.8,020.2,14.2,0000.0,0001.12,0000.83,0000.74
2024-02-06 16:31:00,SystemResetWarning,0825.1,4.99,000.00,018.6,018.2,000.0,026.8,020.2,14.3,0000.0,0001.11,0000.82,0000.73
2024-02-06 16:32:00,SystemResetWarning,0825.1,5.00,000.00,018.6,018.2,000.0,026.8,020.2,14.3,0000.0,0001.13,0000.82,0000.72
2024-02-06 16:33:00,SystemResetWarning,0825.1,5.00,000.00,018.6,018.2,000.0,026.8,020.3,16.8,0000.0,0001.14,0000.81,0000.71
2024-02-06 16:34:00,SystemResetWarning,0825.1,4.99,000.00,018.6,018.2,000.0,026.8,020.3,17.0,0000.0,0001.09,0000.78,0000.69
2024-02-06 16:35:00,SystemResetWarning,0825.0,5.00,000.00,018.6,018.2,000.0,026.9,020.3,14.6,0000.0,0001.04,0000.76,0000.69
2024-02-06 16:36:00,SystemResetWarning,0825.0,5.00,000.00,018.7,018.3,000.0,026.9,020.3,14.3,0000.0,0001.03,0000.75,0000.68
2024-02-06 16:37:00,SystemResetWarning,0825.1,4.99,000.00,018.7,018.3,000.0,026.9,020.3,14.3,0000.0,0001.06,0000.77,0000.70
2024-02-06 16:38:00,SystemResetWarning,0825.1,5.00,000.00,018.7,018.3,000.0,026.9,020.3,14.4,0000.0,0001.02,0000.78,0000.71
2024-02-06 16:39:00,SystemResetWarning,0825.1,5.01,000.00,018.7,018.3,000.0,026.9,020.3,16.1,0000.0,0000.97,0000.78,0000.72
2024-02-06 16:40:00,SystemResetWarning,0825.1,5.01,000.00,018.7,018.3,000.0,026.9,020.4,18.8,0000.0,0000.96,0000.78,0000.72
2024-02-06 16:41:00,SystemResetWarning,0825.1,5.01,000.00,018.7,018.3,000.0,026.9,020.4,18.4,0000.0,0000.93,0000.77,0000.72
2024-02-06 16:42:00,SystemResetWarning,0825.1,5.00,000.00,018.7,018.3,000.0,026.9,020.3,18.5,0000.0,0000.92,0000.77,0000.72
2024-02-06 16:43:00,SystemResetWarning,0825.2,4.99,000.00,018.7,018.3,000.0,026.9,020.3,18.0,0000.0,0000.93,0000.79,0000.75
2024-02-06 16:44:00,SystemResetWarning,0825.2,5.00,000.00,018.7,018.3,000.0,027.0,020.4,17.5,0000.0,0001.09,0000.89,0000.85
2024-02-06 16:45:00,SystemResetWarning,0825.2,5.00,000.00,018.7,018.3,000.0,027.0,020.3,17.4,0000.0,0001.26,0001.01,0000.95
2024-02-06 16:46:00,SystemResetWarning,0825.2,5.00,000.00,018.7,018.3,000.0,027.0,020.3,16.8,0000.0,0001.49,0001.15,0001.06
2024-02-06 16:47:00,SystemResetWarning,0825.2,5.00,000.00,018.8,018.3,000.0,027.0,020.4,16.3,0000.0,0001.67,0001.27,0001.16
2024-02-06 16:48:00,SystemResetWarning,0825.2,5.00,000.00,018.8,018.3,000.0,027.0,020.4,17.4,0000.0,0001.75,0001.34,0001.22
2024-02-06 16:49:00,SystemResetWarning,0825.2,5.00,000.00,018.8,018.3,000.0,027.0,020.4,19.1,0000.0,0001.86,0001.40,0001.26
2024-02-06 16:50:00,SystemResetWarning,0825.2,5.00,000.00,018.8,018.3,000.0,027.0,020.4,18.6,0000.0,0001.91,0001.43,0001.28
2024-02-06 16:51:00,SystemResetWarning,0825.2,5.00,000.00,018.8,018.3,000.0,027.0,020.4,17.9,0000.0,0002.64,0001.48,0001.30
2024-02-06 16:52:00,SystemResetWarning,0825.2,4.99,000.00,018.8,018.3,000.0,027.0,020.4,18.1,0000.0,0003.77,0001.54,0001.34
2024-02-06 16:53:00,SystemResetWarning,0825.2,4.99,000.00,018.8,018.3,000.0,027.0,020.4,18.5,0000.0,0004.42,0001.69,0001.43
2024-02-06 16:54:00,SystemResetWarning,0825.3,5.00,000.00,018.8,018.3,000.0,027.0,020.4,18.7,0000.0,0004.62,0001.77,0001.50
2024-02-06 16:55:00,SystemResetWarning,0825.2,5.01,000.00,018.8,018.3,000.0,027.0,020.4,18.9,0000.0,0004.67,0001.77,0001.48
2024-02-06 16:56:00,SystemResetWarning,0825.1,5.00,000.00,018.8,018.3,000.0,027.1,020.4,18.7,0000.0,0004.77,0001.83,0001.51
2024-02-06 16:57:00,SystemResetWarning,0825.1,5.00,000.00,018.8,018.3,000.0,027.1,020.4,18.3,0000.0,0004.90,0001.90,0001.55
2024-02-06 16:58:00,SystemResetWarning,0825.1,5.00,000.00,018.8,018.4,000.0,027.1,020.5,17.6,0000.0,0005.00,0001.96,0001.59
2024-02-06 16:59:00,SystemResetWarning,0825.1,5.00,000.00,018.8,018.4,000.0,027.1,020.5,17.2,0000.0,0005.12,0002.02,0001.63
